Location: St. Louis
(38.6270°N, 90.1994°W)
Time: 21:35:24
(UTC-06:00)

Altair - Pass Details

Date: 08 December 2021
Orbit: 1501 x 1683 km, 47.2° (Epoch: 26 January)

Event Time Altitude Azimuth Distance (km) Brightness Sun altitude
Rises 17:39:08 0° 286° (WNW) 4,745 11.0 -11.4°
Reaches altitude 10° 17:42:24 10° 292° (WNW) 3,737 10.3 -12.0°
Maximum altitude 17:51:31 52° 7° (N) 1,839 7.7 -13.7°
Enters shadow 17:58:10 19° 76° (ENE) 2,995 8.4 -15.0°
